Fort Chipewyan Airport
CYPY : now visible

Airfield :











YOU CAN JOIN US ON...

 
LOGIN :

Register | Disclaimer

   EN    FR    IT 

 









Legend :    VFR   Marginal VFR   IFR   Intensive IFR   Very Intensive IFR
Visi :
Ceiling :
>= 8 km
>= 3000ft
5 to 8 km
1000 to 3000 ft
1500m to 5 km
500 to 1000 ft
800 to 1500m
200 to 500 ft
< 800m
< 200 ft
Symbols :   Thunderstorms  Fog  Heavy snow  Heavy precipitations  Wind > 20 kt






- Airport Elevation : 761 ft
- IATA code : YPY


CYPY - Fort Chipewyan

CURRENT METAR :
  • 202200Z AUTO 31008KT 240V320 9SM FEW066 16/01 A3012 RMK SLP213 DENSITY ALT 900FT

EXPIRED METARs :
  • 202100Z AUTO VRB06KT 9SM SCT060 15/02 A3013 RMK SLP216 DENSITY ALT 800FT
  • 202000Z AUTO 33009KT 260V010 9SM BKN060 14/01 A3016 RMK SLP224

TAF TAF CYPY
Valid from the 20 at 18:00 until the 21 at 06:00 UTC


201739Z 2018/2106 VRB03KT P6SM SCT050
TEMPO 2018/2021 BKN050 RMK FCST BASED ON AUTO OBS. NXT FCST BY 210000Z
CZEG FIR / North America



MET'MAP, your aeronautical weather chart ! - Copyright ORBIFLY December 2007 - Disclaimer

ORBIFLY MET'MAP TEAM :

Programming & Development : Alexandra Zaïnal
Concept & original design : Baudouin d'Aumeries
Assistance for programming : Marc-Olivier Méhu
Technical & hardware support : Manuel Goepfert

Contact : metmap@orbifly.com




SOURCES & CREDITS :

   NOAA       Earth
Advisory